Location: Unspecified
(0.0000°N, 0.0000°E)
Time: 00:21:43
(UTC+00:00)

Orbcomm A3 (FM07) - Visible Passes

Search period start: 16 September 2024 00:00
Search period end: 26 September 2024 00:00
Orbit: 743 x 750 km, 45.0° (Epoch: 15 September)

Date Brightness Start Highest point End Pass type
(mag) Time Alt. Az. Time Alt. Az. Time Alt. Az.
16 Sep 9.3 03:31:15 26° ENE 03:31:15 26° ENE 03:34:59 10° ESE visible
16 Sep 8.2 05:11:04 13° WNW 05:15:12 32° SW 05:19:53 10° SSE visible
17 Sep 7.5 04:28:25 49° WSW 04:29:08 53° SW 04:34:17 10° SSE visible
18 Sep 8.8 03:45:36 32° SE 03:45:36 32° SE 03:48:22 10° SE visible
19 Sep 9.2 04:42:24 15° SW 04:42:24 15° SW 04:44:51 10° S visible
20 Sep 9.7 03:59:14 13° S 03:59:14 13° S 03:59:53 10° S visible
